GFSNIL_925_spd_021.txt.gz
Wind_Speed
2 0 1 1 2 1 4 7 8 7 4 4 7 7 9 9 9 7 4 9 9 6
2 0 0 0 2 4 6 9 8 8 5 5 7 6 6 7 7 7 8 9 6 5
2 1 2 3 3 6 8 9 8 7 5 5 5 5 6 7 7 7 8 8 7 7
3 3 4 3 2 5 8 8 8 8 6 6 7 6 7 7 7 8 9 8 8 9
5 3 4 4 4 6 7 8 8 8 7 6 7 7 8 8 7 8 8 8 9 12
5 4 5 5 4 5 8 10 9 9 8 9 10 11 8 9 9 8 8 9 11 12
6 4 6 6 6 8 9 10 10 9 9 10 10 10 11 10 10 11 11 10 10 12
7 6 8 7 6 9 10 10 10 11 10 11 12 13 12 12 11 12 12 11 10 11
8 8 9 8 8 9 10 11 11 10 10 9 10 16 16 15 13 12 12 14 12 13
9 10 11 9 9 10 11 10 9 10 10 12 15 16 16 14 12 12 13 14 16 18
11 10 10 10 9 10 10 9 8 10 11 15 16 13 10 12 11 14 13 14 18 21
14 13 11 11 10 9 10 9 7 9 14 17 17 10 10 12 13 15 15 16 19 21
14 14 12 10 10 9 12 12 12 14 15 14 14 12 11 14 18 20 20 20 21 25
16 15 13 11 10 12 14 15 14 15 13 14 14 13 13 15 15 21 19 18 21 22

GFSNIL_925_spd_024.txt.gz
Wind_Speed
5 3 3 2 3 2 4 6 7 7 6 5 5 7 8 8 8 7 5 7 8 6
5 2 0 1 2 2 6 8 6 6 6 6 5 6 7 7 8 7 6 7 8 7
4 2 3 4 4 4 7 8 7 6 5 5 6 4 4 6 7 6 8 7 5 2
4 3 3 3 5 6 9 10 7 6 4 4 4 3 3 4 5 5 7 8 6 6
4 3 3 4 6 8 9 9 9 7 5 4 3 3 4 5 5 7 7 6 7 9
5 2 4 4 7 8 9 9 9 8 5 4 4 5 5 6 7 8 8 8 9 10
5 4 6 5 7 9 9 9 9 7 6 6 5 5 6 7 8 8 9 9 9 11
6 7 7 8 9 9 10 10 10 10 9 7 7 6 7 8 9 9 8 10 9 10
8 9 8 9 9 10 11 11 11 10 9 8 7 10 10 9 10 10 10 11 13 13
9 11 10 10 11 11 11 10 10 10 9 8 11 13 11 11 9 10 11 12 15 14
11 12 10 10 12 11 11 9 8 11 11 11 10 12 11 9 9 10 11 12 14 15
12 12 11 10 12 11 11 9 8 10 11 11 12 9 10 8 10 12 12 13 14 17
14 13 11 10 11 12 12 11 11 12 13 15 11 9 10 8 13 12 14 15 15 20
15 14 12 10 10 13 13 13 14 13 13 12 12 10 11 13 16 16 16 17 19 22

GFSNIL_925_spd_030.txt.gz
Wind_Speed
9 7 4 3 1 3 3 4 7 6 4 4 4 5 6 5 5 3 5 7 9 6
7 6 5 4 2 5 7 7 7 6 4 4 4 5 7 4 5 4 1 1 2 2
9 5 6 5 4 6 7 8 8 5 4 4 4 4 6 5 6 6 4 2 2 2
9 7 7 5 5 8 6 9 7 7 5 5 4 3 4 8 6 5 3 2 1 2
8 11 6 8 8 10 8 8 8 8 5 5 6 4 2 4 4 5 5 3 2 1
9 6 8 7 11 11 10 8 7 6 6 7 8 6 4 5 3 4 3 2 3 11
8 9 8 8 8 6 12 10 8 8 8 8 6 5 5 4 2 3 3 4 5 6
11 9 9 9 10 4 12 10 13 11 10 7 7 5 5 4 2 4 7 9 10 14
15 11 10 11 10 9 5 11 12 11 10 5 8 8 6 6 5 7 12 12 15 13
18 12 13 12 13 12 11 12 14 14 10 9 12 9 8 7 8 13 13 15 17 16
16 12 8 14 14 13 13 13 13 12 15 11 10 11 8 10 9 13 14 15 16 18
16 15 11 14 15 13 12 12 15 15 16 10 11 10 8 12 12 15 15 17 17 20
16 18 13 14 12 11 10 10 9 13 16 9 7 9 8 12 15 21 20 17 18 19
20 18 17 16 14 13 13 13 14 14 14 9 7 8 9 13 18 20 17 18 21 21

GFSNIL_925_spd_033.txt.gz
Wind_Speed
8 8 7 5 4 6 5 6 8 8 6 6 5 5 6 6 6 6 6 5 8 9
10 9 8 6 6 6 7 10 9 8 6 5 6 5 6 7 7 6 3 2 3 5
10 10 11 8 7 8 10 9 9 7 6 6 6 5 7 7 8 6 4 3 4 7
13 12 11 9 9 9 12 10 8 7 7 7 5 3 5 5 5 6 4 3 4 4
14 11 9 10 11 12 11 11 9 7 7 6 6 5 4 4 5 4 5 5 6 4
15 10 9 11 12 13 11 10 9 7 12 8 8 6 6 3 2 6 5 5 5 7
12 11 11 11 13 12 12 10 10 12 13 9 9 6 5 3 3 3 7 7 11 9
15 11 11 11 11 7 12 13 17 13 11 10 7 6 5 3 3 4 11 15 15 12
15 11 11 12 10 9 11 17 13 11 14 9 10 6 5 5 6 8 13 17 16 13
18 14 13 12 11 11 17 17 15 15 12 12 11 6 7 8 11 13 15 16 15 15
19 15 15 15 13 13 15 16 16 14 11 14 11 7 8 12 13 16 17 15 16 19
19 16 19 17 16 15 16 17 15 16 13 14 12 9 11 14 15 17 17 16 17 19
23 20 21 18 16 13 13 18 20 16 14 13 12 9 11 14 19 20 19 18 18 16
23 21 18 17 16 15 16 18 19 17 13 12 11 10 12 14 19 21 20 21 17 20